GFSSGP_sfc_thetae_150.txt.gz
Theta_e
316 310 304 300 293 288 285 289 290 294 295 305 308 312 311 313 315 310 330 343 345 345 348 349 349 350 350 351 351 352 353 353 353 352 351 352 353 353 353 353 353 353 353 352 352 350 350 349 350
313 309 302 295 288 283 285 290 292 294 297 305 304 310 311 310 319 325 329 342 345 346 347 348 348 349 350 350 350 352 353 353 352 352 351 352 352 352 352 352 352 352 354 352 351 350 349 349 348
307 305 298 290 285 285 287 293 296 297 299 298 303 311 311 311 319 326 340 343 344 344 347 348 347 348 349 349 350 351 351 350 351 352 353 353 353 353 353 351 351 353 354 352 351 349 349 347 345
306 301 297 290 288 291 290 294 294 296 303 305 304 304 312 315 320 338 343 343 342 343 344 344 345 347 349 350 350 350 350 348 349 350 352 353 353 353 351 350 351 353 353 353 351 349 347 344 343
300 296 290 288 289 292 295 295 296 298 301 302 302 298 302 305 325 341 342 343 340 341 342 344 343 346 350 351 350 349 348 347 347 349 350 352 352 351 349 348 350 351 352 352 350 347 344 343 342
297 294 288 286 289 294 293 294 295 295 296 297 300 297 296 302 306 310 312 313 313 313 318 331 339 344 345 347 348 346 346 346 346 347 348 350 350 349 348 347 348 349 350 349 346 344 343 342 341
294 291 287 288 288 289 291 294 294 294 294 294 299 294 296 301 305 308 306 307 308 307 306 311 314 318 329 342 342 341 342 344 344 345 345 346 346 345 346 346 347 348 348 346 344 342 341 341 340
294 291 286 287 289 286 292 294 294 293 292 296 296 291 292 300 303 303 303 302 302 302 301 303 308 310 314 328 341 341 341 338 342 343 342 342 343 343 344 344 345 346 346 344 343 341 339 339 338
290 285 283 286 287 287 293 292 295 295 293 296 299 296 298 300 300 298 298 298 298 299 299 299 302 303 307 314 318 341 344 342 339 341 341 339 341 341 342 342 342 345 344 342 341 339 337 336 336
287 283 285 289 289 290 292 290 291 291 290 293 297 298 298 298 296 295 294 293 294 295 296 297 299 299 303 308 309 313 321 340 342 342 341 340 342 339 341 341 340 342 342 341 339 338 336 335 332
285 285 287 289 290 288 287 289 291 288 289 294 293 294 295 295 294 293 293 292 292 294 295 296 297 297 299 299 303 307 311 314 328 339 341 342 342 342 341 341 342 343 342 339 337 336 334 332 330
285 288 289 289 291 289 287 290 292 291 292 296 295 295 294 292 292 292 291 291 291 292 293 294 296 295 296 297 299 302 304 309 313 315 327 337 340 339 339 340 339 341 341 339 334 332 332 330 329
286 288 291 292 291 290 293 291 291 292 295 296 294 293 292 291 291 292 291 291 291 290 291 293 294 294 294 295 297 298 301 304 307 310 315 322 339 339 339 339 338 340 340 338 336 332 331 330 329
290 290 290 291 290 291 291 291 292 292 295 293 293 290 290 290 291 290 289 289 289 290 290 291 292 293 293 293 295 297 300 302 304 307 309 313 319 335 338 338 337 338 339 338 336 334 331 330 329
291 287 289 288 289 288 293 288 288 292 293 290 290 290 290 290 290 289 289 289 289 289 290 290 292 292 292 292 294 296 298 300 300 303 306 310 311 315 328 337 336 338 338 337 336 334 330 328 327
287 286 282 287 289 288 287 283 289 291 290 288 288 289 289 289 289 290 290 289 289 288 289 290 291 291 291 291 293 294 296 297 298 301 303 306 309 311 314 324 336 338 338 336 335 333 330 329 328
284 280 282 285 287 287 287 284 288 290 289 287 287 287 288 288 289 289 289 289 289 288 288 289 290 290 290 291 292 293 294 296 297 299 301 304 306 308 310 314 323 337 337 336 335 333 331 329 327
280 281 280 280 283 287 284 282 285 287 287 286 286 286 286 286 287 289 289 289 289 288 288 289 289 290 290 291 291 292 293 295 296 298 300 303 305 309 309 312 320 334 336 335 334 333 331 330 328
285 282 281 282 286 286 284 282 284 285 286 285 286 286 286 285 288 288 289 288 288 288 287 288 288 289 290 289 289 289 290 292 295 297 300 300 302 305 306 308 311 315 332 333 333 330 330 328 328
286 283 282 284 288 287 282 280 283 285 285 284 284 284 284 285 286 287 288 288 287 287 287 287 288 289 290 290 290 291 291 292 294 295 296 299 301 303 304 306 309 312 315 330 333 328 330 329 327
284 282 282 283 285 285 283 280 282 286 286 287 286 285 285 284 285 285 286 286 287 286 285 286 288 289 290 290 290 290 291 291 292 292 294 296 299 302 302 304 307 310 314 319 329 331 330 327 327
282 287 286 284 282 278 283 274 281 283 284 285 284 283 283 284 285 284 285 285 285 285 286 286 288 288 289 290 289 287 287 287 290 291 293 294 297 300 301 302 304 307 312 319 327 329 329 329 324
286 289 286 285 281 279 280 277 278 283 282 283 283 283 283 284 285 283 283 284 285 284 284 286 288 288 288 288 288 287 287 289 289 291 291 293 296 297 299 302 303 307 311 316 324 325 324 324 322
291 289 287 285 282 274 281 280 276 279 282 283 284 284 284 284 284 284 284 284 283 283 284 286 286 287 287 288 288 287 286 287 287 288 289 291 293 295 297 300 300 304 307 311 319 325 325 324 324
288 284 277 277 276 274 282 280 277 282 284 284 283 283 283 284 283 283 281 281 281 281 284 285 285 285 286 286 287 287 287 287 288 288 288 289 290 292 293 296 298 301 305 307 310 315 323 323 321
285 285 279 274 275 276 283 277 279 286 286 286 285 283 283 282 282 283 281 280 280 280 283 284 284 285 285 285 286 287 287 288 288 288 288 289 289 290 293 295 295 297 299 299 303 310 320 322 322
285 282 287 282 281 276 277 279 284 285 284 285 283 282 279 280 281 281 280 280 279 279 282 283 284 285 285 286 286 286 287 286 286 287 288 288 289 290 290 290 291 293 294 295 299 305 313 320 321
288 289 282 282 276 275 275 276 277 281 281 283 278 278 279 280 280 280 278 278 279 279 281 282 285 284 285 286 286 286 286 286 286 286 285 286 287 288 288 288 288 289 290 292 295 300 310 317 321
286 285 285 285 283 277 273 274 280 283 283 282 280 278 278 276 276 276 274 276 277 277 279 281 282 284 284 285 285 285 285 285 285 284 284 285 286 285 285 286 286 286 287 288 290 293 298 309 318
288 287 287 281 280 280 279 274 285 284 284 283 282 280 276 278 273 274 275 274 274 275 277 278 280 282 284 285 285 285 284 284 283 283 284 284 283 284 284 284 285 285 286 287 288 289 294 298 306

GFSSGP_sfc_thetae_153.txt.gz
Theta_e
323 315 313 310 303 300 295 297 299 301 311 318 319 320 318 321 318 314 339 347 350 350 353 353 349 351 351 351 351 352 353 353 353 354 353 354 354 354 354 353 353 353 353 352 350 350 350 350 351
317 313 311 305 299 295 296 298 298 301 307 310 313 316 316 315 327 332 341 347 350 350 353 353 348 349 350 350 351 352 353 352 352 352 353 353 354 353 353 353 351 352 353 352 350 350 350 349 349
313 309 308 301 297 295 297 298 298 301 305 303 313 317 316 311 327 339 343 347 348 347 351 350 346 348 350 349 350 351 351 351 351 351 352 352 353 353 353 351 350 353 354 352 351 350 349 348 346
310 310 305 300 295 297 297 299 298 302 308 311 315 310 311 310 322 319 319 322 320 320 328 329 334 344 350 350 350 350 350 349 350 350 352 352 352 353 351 350 350 353 354 353 351 350 347 345 343
307 306 300 297 297 300 302 300 299 304 302 305 308 307 303 306 311 311 312 313 311 311 314 317 324 328 339 348 350 349 349 348 348 350 351 352 352 352 350 349 350 351 353 353 351 349 345 344 343
305 303 297 296 296 298 299 299 299 300 301 301 302 300 301 306 307 306 308 307 307 307 309 312 315 319 324 333 344 344 346 346 346 347 349 351 351 350 349 348 348 350 351 350 348 345 344 343 342
302 299 295 296 295 295 297 300 298 298 299 298 302 297 301 303 305 306 305 305 306 305 306 309 309 311 316 321 325 335 342 342 342 344 345 346 345 346 347 347 347 348 348 348 346 343 342 341 341
301 301 295 295 295 294 298 299 299 298 297 302 302 297 298 301 304 304 304 303 303 303 303 304 306 306 309 314 316 320 326 340 341 341 340 341 343 344 344 344 345 346 347 346 344 342 340 340 339
297 296 293 294 294 294 298 297 298 301 300 298 299 298 299 300 302 302 302 301 301 301 301 302 302 303 305 308 310 314 318 320 330 342 342 340 348 350 349 345 343 344 344 344 343 340 338 337 337
297 295 294 296 296 296 297 297 296 297 297 297 297 299 299 299 299 298 297 296 297 297 298 299 301 301 302 303 306 309 312 315 321 322 325 346 347 345 344 343 339 340 342 342 341 339 337 336 342
293 294 294 295 297 297 296 296 297 296 294 295 294 295 296 297 296 296 295 295 295 296 297 298 299 300 300 301 303 305 307 310 314 316 320 325 338 349 347 345 346 347 343 347 345 344 343 342 341
293 294 295 296 297 296 295 297 294 295 294 296 295 295 295 294 294 294 294 294 294 295 296 297 298 298 299 300 301 303 305 307 308 311 315 316 318 322 344 346 343 343 344 343 344 345 344 342 341
293 294 296 297 296 296 298 295 293 293 295 296 295 294 293 293 293 294 294 294 294 294 295 296 297 297 297 298 300 302 303 305 306 307 310 312 315 318 319 331 345 342 343 343 342 340 343 341 340
295 295 296 296 296 296 295 294 295 293 296 294 293 292 293 293 293 293 293 293 292 293 294 295 296 297 297 297 298 299 301 302 304 305 307 310 311 313 315 316 319 340 344 345 342 339 338 341 339
295 292 293 294 294 294 297 292 290 294 294 292 292 292 292 292 293 292 292 292 292 293 294 294 296 297 296 297 298 299 300 301 302 303 306 308 310 311 312 314 317 316 331 343 340 343 337 339 339
293 292 289 293 293 292 294 288 291 294 293 291 291 291 291 292 292 293 293 292 293 293 293 294 295 296 296 296 297 298 299 300 301 302 304 306 308 309 311 312 315 318 319 330 340 336 332 333 336
289 287 288 290 293 293 292 288 291 293 292 290 290 290 291 291 292 293 293 293 292 293 292 293 294 294 295 296 296 297 298 298 299 301 302 304 305 307 308 309 312 316 317 323 335 335 331 331 332
285 286 288 289 291 292 290 287 289 290 291 289 289 289 290 290 290 292 292 293 292 292 293 293 294 294 295 295 296 297 297 298 299 300 300 301 303 304 305 307 309 312 315 319 322 332 333 331 332
289 288 287 289 291 291 288 288 288 289 289 289 288 289 289 289 291 292 292 292 292 292 291 291 292 293 294 293 293 293 293 295 296 298 298 300 301 302 303 303 304 305 307 313 317 316 332 331 330
289 288 287 290 291 291 288 287 289 290 289 289 289 288 288 289 290 290 291 291 291 290 290 291 292 292 293 293 293 293 293 295 295 296 297 299 299 300 301 303 302 303 304 307 314 318 321 328 329
289 287 287 288 289 289 288 286 287 289 289 289 289 289 289 288 288 288 288 289 289 289 289 290 291 292 292 292 292 292 293 293 292 292 293 295 297 299 300 300 300 302 304 305 310 316 320 324 328
285 291 289 288 287 284 288 283 286 288 287 288 288 287 288 288 288 287 287 288 288 288 289 290 291 291 291 291 290 289 288 287 290 291 292 293 295 296 298 299 298 300 301 302 306 314 321 325 322
289 292 290 289 286 285 286 284 285 287 286 287 288 287 287 288 288 287 286 287 287 287 289 289 290 290 290 290 290 289 288 289 290 291 291 291 293 295 295 296 297 297 300 302 304 307 312 320 328
293 291 290 288 287 281 286 285 287 284 287 287 287 287 287 287 287 287 287 287 286 287 289 289 289 289 289 289 289 289 288 288 287 289 289 290 291 292 293 294 294 294 297 298 300 302 305 309 318
291 288 281 280 280 279 286 283 287 287 288 289 287 286 286 286 286 286 284 284 284 285 287 287 287 287 288 288 289 288 288 288 287 287 287 288 289 289 291 292 292 292 294 295 297 298 300 304 310
288 288 282 276 277 280 285 281 285 288 288 288 287 286 285 285 286 284 283 283 284 284 285 286 286 286 287 288 288 288 288 287 287 287 287 288 287 289 290 290 291 290 291 293 294 295 299 304 307
287 285 290 284 283 281 284 284 286 287 286 286 284 284 284 284 284 283 283 283 283 283 284 285 285 286 286 287 287 288 288 287 286 286 287 287 287 288 288 288 288 290 290 291 292 293 296 299 302
290 292 284 285 277 275 281 282 286 283 284 285 283 283 283 283 283 282 281 281 282 283 284 285 286 286 286 287 287 288 287 287 286 286 285 285 285 285 285 286 287 288 289 289 290 291 293 296 300
288 286 288 287 285 279 278 282 286 287 287 286 285 283 283 283 282 281 280 281 281 282 283 284 284 284 285 285 286 287 286 286 285 285 285 285 285 284 284 284 285 286 287 288 289 289 292 295 298
290 288 288 283 281 284 283 283 287 288 288 288 285 283 283 283 281 280 280 280 280 279 280 281 282 283 283 285 285 286 285 285 285 284 284 285 284 284 283 283 284 285 285 286 287 286 287 291 293

GFSSGP_sfc_thetae_156.txt.gz
Theta_e
326 323 322 318 308 307 302 302 307 310 315 321 322 322 323 326 323 319 345 348 350 350 354 355 349 351 351 351 351 351 352 353 354 355 354 354 355 355 355 354 354 353 351 350 349 349 350 351 350
321 320 320 317 305 301 302 305 304 314 318 321 322 322 321 322 335 336 331 330 333 337 335 338 346 350 351 351 351 352 352 350 352 353 354 355 354 354 354 353 352 352 352 351 350 349 349 349 350
319 317 315 312 307 303 302 305 306 311 312 314 318 323 321 314 322 318 320 328 324 323 327 327 333 339 351 351 351 351 351 351 350 350 352 353 353 354 353 352 351 352 352 352 351 350 350 349 348
319 318 315 306 302 303 303 306 306 311 313 317 320 317 312 311 313 311 317 322 320 318 322 323 325 330 335 347 351 351 350 349 350 350 350 350 351 352 352 351 350 352 352 352 352 350 349 346 345
320 316 308 304 302 304 305 306 309 309 311 316 317 315 309 307 310 310 317 320 318 316 318 321 320 324 328 333 335 343 349 348 348 349 350 350 351 351 351 350 350 351 353 354 353 351 347 345 343
313 313 304 301 301 303 304 306 309 309 311 313 317 317 307 308 308 311 315 316 317 317 318 318 318 319 320 323 326 328 333 344 346 347 348 349 349 350 350 349 349 350 351 351 350 348 345 344 343
309 308 304 303 301 301 303 307 306 307 307 304 309 311 310 307 310 312 313 314 314 314 315 316 316 316 318 320 318 321 324 329 337 344 345 346 345 344 348 348 348 348 349 349 348 346 343 343 342
312 309 302 304 301 300 302 303 304 305 302 307 307 307 308 306 309 311 312 312 312 312 312 313 314 314 315 318 316 317 320 323 329 328 334 340 341 344 344 344 345 347 347 348 347 344 342 341 340
306 303 302 302 302 300 303 301 304 307 304 303 303 303 303 305 308 309 310 310 309 309 309 310 310 311 313 314 314 318 320 323 325 326 327 334 348 350 349 345 342 345 345 345 345 343 340 339 338
304 302 301 305 305 302 301 302 302 303 303 301 302 303 304 305 306 306 305 305 306 306 307 307 309 309 311 310 314 316 317 319 321 322 324 329 336 336 347 344 340 341 342 342 342 341 339 338 343
302 300 301 302 303 302 302 301 303 303 300 301 300 300 302 303 304 304 304 304 304 305 306 306 308 309 309 310 311 313 314 316 317 319 320 322 323 330 329 338 351 351 343 349 345 346 347 345 343
298 300 301 302 301 301 300 303 300 302 300 301 301 301 301 301 301 301 302 302 302 304 304 305 306 307 308 308 309 310 312 313 313 315 318 317 318 321 325 329 323 337 349 348 349 350 348 345 344
298 299 300 302 302 302 302 301 299 298 299 300 300 300 300 300 301 301 302 302 303 302 303 304 305 305 306 308 308 309 310 310 312 313 315 315 316 317 319 321 325 325 323 342 346 345 346 344 344
300 300 301 301 301 302 300 299 301 298 300 299 299 299 300 299 300 301 301 301 301 302 302 304 304 305 305 305 306 308 309 309 310 311 312 314 314 315 316 317 319 321 327 324 322 341 344 345 345
299 296 299 300 300 300 303 297 298 300 300 298 298 299 298 299 300 299 300 300 301 302 302 303 303 305 305 305 306 307 307 308 308 309 312 312 312 312 313 314 316 318 322 325 329 326 343 343 342
296 297 295 299 299 300 300 296 298 300 299 298 298 298 298 298 299 300 300 300 301 301 301 302 303 304 304 304 305 305 306 306 307 308 309 309 309 311 310 311 314 317 318 319 322 329 333 336 340
295 294 294 295 299 297 298 296 298 301 299 298 297 298 297 297 298 299 300 300 300 300 300 301 302 302 303 304 305 306 306 306 305 306 306 307 307 308 308 309 311 310 312 315 319 323 330 333 336
291 291 294 294 296 297 296 296 297 299 299 298 298 297 297 297 296 298 298 299 299 300 300 301 301 302 302 304 305 305 305 305 306 305 305 306 306 304 304 305 305 305 305 307 311 314 323 323 329
292 292 292 295 295 295 295 296 296 297 297 297 297 297 297 296 297 298 298 298 298 299 299 299 299 300 301 301 300 301 301 303 304 304 304 304 304 302 301 301 302 303 303 304 306 308 312 321 323
293 291 292 295 295 295 296 295 297 296 297 298 298 297 297 297 296 296 297 297 297 297 298 298 298 299 299 299 300 300 301 302 302 302 303 303 302 302 300 299 300 302 301 302 304 305 308 313 325
295 293 294 293 294 296 295 294 294 296 298 297 296 297 296 296 295 295 295 295 296 296 296 297 298 298 298 298 299 300 301 302 300 300 300 301 301 301 299 298 298 298 300 300 301 304 304 306 316
294 298 296 294 292 289 295 288 294 296 294 294 295 296 296 295 295 294 294 294 294 295 296 296 297 297 297 297 297 296 296 295 296 296 298 299 300 299 298 297 297 297 297 296 298 302 303 305 304
294 296 295 294 293 293 292 288 295 296 293 294 296 296 295 295 294 292 292 293 293 294 295 296 297 296 296 296 295 295 294 294 295 295 295 297 298 298 296 295 295 295 296 296 296 297 298 300 299
297 293 294 294 293 286 292 291 292 294 294 297 296 295 294 293 293 291 291 292 292 294 295 295 295 295 296 295 295 293 292 292 292 292 293 294 296 297 297 295 294 294 294 293 294 295 297 298 299
294 291 285 284 284 284 292 289 292 294 294 297 295 293 292 292 292 290 290 290 290 291 293 293 293 293 294 293 293 293 292 291 291 291 291 291 292 293 293 293 292 292 292 292 293 293 295 296 298
292 291 285 278 281 285 291 285 292 294 294 297 296 293 292 291 291 289 289 289 289 289 291 292 292 292 292 292 293 294 293 291 291 291 290 290 290 290 292 292 292 291 291 292 292 293 294 296 298
290 288 294 287 288 284 288 292 291 293 291 291 291 290 290 291 290 288 288 288 288 289 290 291 290 291 290 291 293 293 293 292 290 290 291 290 290 290 291 291 291 291 290 291 291 292 292 294 296
293 295 287 287 279 278 285 287 289 289 290 290 289 289 288 290 289 287 285 286 287 288 290 290 290 289 289 289 292 292 292 292 291 290 289 289 289 289 289 290 290 289 289 290 290 290 291 290 295
291 289 290 289 287 281 280 286 292 292 294 292 291 288 289 288 288 285 283 284 285 286 288 288 287 287 286 287 290 291 290 291 291 290 289 288 289 288 287 288 288 288 287 288 289 288 288 287 288
293 291 291 284 283 287 286 286 294 294 296 295 293 287 288 287 286 285 284 284 283 283 284 284 285 285 285 287 287 290 289 289 289 289 288 288 288 288 286 286 286 286 287 287 286 286 287 286 285

GFSSGP_sfc_thetae_159.txt.gz
Theta_e
325 328 326 320 309 308 306 305 310 311 315 319 321 324 329 331 328 321 333 329 329 333 336 340 343 351 351 352 352 352 353 354 354 353 353 353 354 354 354 354 353 352 351 349 349 349 349 350 350
320 324 323 317 306 303 305 309 307 315 319 323 326 328 326 325 326 322 327 325 327 329 330 332 337 341 350 351 352 352 352 351 352 353 352 353 354 354 354 353 352 350 350 350 349 349 348 348 349
321 323 315 312 308 303 305 308 309 318 320 320 320 326 323 316 321 315 318 324 325 327 327 325 331 335 340 341 346 352 351 351 349 349 351 352 352 353 354 353 351 350 350 351 351 350 349 348 349
320 320 316 306 305 307 308 309 310 314 315 318 323 318 317 318 316 312 320 323 324 326 329 323 325 329 333 335 337 339 345 350 350 350 349 349 351 352 352 352 351 350 351 351 352 351 349 347 346
320 317 309 306 306 307 309 309 311 312 313 317 320 318 314 312 312 316 321 323 324 324 327 326 323 323 326 328 330 331 335 339 345 349 349 350 349 350 351 351 350 350 351 352 353 352 349 346 345
313 314 306 304 306 307 308 311 312 311 314 316 319 319 313 311 311 318 321 321 322 321 323 323 324 323 323 322 323 325 327 331 334 338 346 348 349 350 351 350 350 349 350 351 352 350 347 345 344
309 310 306 307 306 305 306 312 310 312 312 310 318 316 312 312 314 318 319 319 319 319 319 321 321 322 325 323 320 322 323 325 330 330 331 334 342 345 347 348 349 348 348 349 349 348 345 344 343
310 310 306 307 305 304 306 308 310 311 306 311 312 313 313 312 315 318 317 317 316 316 316 317 318 318 320 321 322 324 324 325 329 329 329 331 338 342 345 345 345 347 347 347 348 346 344 342 341
311 304 304 305 305 305 307 304 307 310 308 307 308 310 310 311 314 315 315 314 314 314 314 316 315 316 318 317 319 323 325 326 326 325 327 330 338 343 340 343 342 344 344 344 345 344 343 340 339
306 304 305 309 309 305 305 306 307 307 306 305 305 308 309 311 312 310 310 310 310 311 311 313 314 315 316 315 319 320 320 321 322 322 323 324 326 330 334 338 335 340 341 342 342 342 341 340 344
306 303 305 306 307 307 306 304 306 306 304 306 304 305 307 308 308 308 307 308 309 310 311 311 313 314 314 315 315 316 317 318 319 321 321 322 322 324 325 327 334 336 338 346 343 345 345 344 343
300 304 304 305 305 305 305 307 304 307 305 306 306 306 306 305 305 306 306 307 308 309 309 310 311 312 313 313 314 315 315 316 316 318 320 319 319 321 322 322 324 326 331 329 337 344 343 344 343
303 304 303 304 304 304 305 304 304 302 304 305 305 305 304 305 305 306 307 307 308 308 309 309 311 311 312 312 312 313 313 314 315 316 317 317 317 318 318 319 320 322 323 328 329 326 333 342 343
304 303 304 305 304 304 303 302 304 303 304 303 304 304 304 304 304 306 306 306 306 307 307 309 309 311 311 311 312 312 312 313 313 314 315 315 314 315 315 316 317 319 321 322 324 329 330 330 343
304 300 304 304 304 303 304 300 301 305 304 303 303 304 304 304 305 304 305 305 306 307 307 308 308 310 310 310 311 311 311 312 312 312 314 313 313 313 313 313 314 316 318 319 321 322 326 334 339
301 302 298 306 304 303 302 297 304 305 303 302 303 303 303 303 304 304 304 305 305 306 306 308 308 308 309 310 310 310 311 311 311 311 311 312 312 311 310 310 312 313 313 313 314 317 320 323 332
301 296 299 300 303 302 300 299 303 304 302 302 303 303 303 303 303 304 304 304 304 305 305 306 307 307 308 309 309 310 311 310 310 311 310 309 310 309 307 307 308 309 308 309 310 311 315 315 320
296 297 298 298 301 300 299 299 302 303 302 302 302 303 303 303 302 302 303 304 304 304 305 305 305 306 307 308 309 309 309 310 310 309 308 308 308 307 305 305 305 305 304 305 305 305 307 310 311
298 297 296 300 301 297 298 298 301 301 301 301 302 302 302 302 302 302 303 303 303 303 303 303 304 304 305 305 304 305 305 307 307 308 308 307 306 306 304 303 303 303 302 302 303 304 304 305 310
299 297 298 301 303 298 298 298 301 301 300 302 302 302 302 302 301 300 301 302 301 301 302 302 302 303 303 303 304 304 305 306 306 306 307 306 306 305 304 301 300 300 298 299 300 301 301 303 307
299 298 298 298 301 300 298 296 300 302 302 302 303 304 303 302 301 299 299 300 300 299 300 301 301 302 302 302 303 303 305 305 304 303 303 304 304 304 303 301 299 298 298 297 297 298 298 296 299
296 302 300 299 297 293 301 291 298 302 299 300 301 302 302 301 301 299 299 299 298 299 300 301 301 301 301 301 300 300 299 298 300 301 302 302 303 302 302 298 298 297 296 296 295 297 297 297 295
295 300 297 298 296 296 295 293 296 301 298 298 300 301 301 302 301 299 298 298 298 298 299 300 300 299 299 299 299 298 298 298 299 300 299 300 301 301 299 297 296 295 295 294 294 294 295 296 296
300 297 296 297 295 288 294 292 294 297 300 301 302 301 301 300 299 297 297 296 296 298 298 299 298 298 298 298 297 297 296 296 296 296 296 296 298 299 298 295 295 295 294 293 293 293 294 294 296
298 293 286 285 285 285 294 291 295 299 299 301 302 301 300 299 297 296 295 294 294 295 296 296 296 296 297 297 298 297 297 296 295 294 294 293 294 294 295 294 293 293 293 293 293 293 293 293 293
294 294 287 280 282 285 293 288 294 299 299 300 302 300 298 296 296 294 293 293 294 294 295 296 295 295 295 296 297 297 297 296 295 294 292 293 293 293 294 293 292 292 292 293 293 292 293 293 291
292 289 295 288 289 285 288 292 296 297 296 298 297 294 294 294 294 293 292 293 292 293 294 294 294 294 294 294 296 296 296 295 294 294 294 293 293 293 292 292 291 291 292 291 291 291 291 291 290
294 296 288 289 280 279 285 288 289 293 293 294 293 293 293 294 293 291 289 289 290 292 293 294 292 292 292 292 295 294 294 294 294 294 292 292 292 292 291 290 290 289 289 290 289 290 291 290 290
292 290 291 291 288 282 281 286 295 295 298 295 293 293 293 293 292 287 285 286 288 288 290 291 290 290 288 289 292 293 293 293 293 292 291 290 290 290 289 288 288 287 288 288 288 288 288 288 288
295 292 292 287 284 288 287 287 300 299 299 299 296 291 293 292 291 290 288 285 284 284 285 286 287 286 286 288 289 291 291 291 291 291 290 289 288 288 287 286 286 286 286 287 286 286 286 286 286

GFSSGP_sfc_thetae_162.txt.gz
Theta_e
320 321 323 320 306 306 302 305 310 309 312 317 330 328 323 325 323 312 324 325 329 328 334 337 342 347 350 352 353 354 354 354 354 353 352 353 353 353 354 354 353 352 351 350 349 349 349 350 349
317 318 321 314 304 300 303 308 306 315 319 324 326 327 325 319 322 318 322 324 327 327 327 330 336 341 343 343 347 351 353 353 352 353 353 352 353 353 353 353 353 352 350 350 350 349 348 349 350
318 320 312 309 305 300 303 308 314 317 320 320 321 323 319 317 317 314 320 324 327 327 323 325 330 334 337 339 341 343 346 349 351 351 351 352 352 353 353 353 352 351 350 350 350 350 350 350 348
316 317 314 303 302 307 307 309 312 315 316 321 322 314 316 316 317 314 323 325 324 327 325 324 327 328 331 333 334 337 339 341 344 349 350 350 350 352 353 353 352 351 350 350 351 353 351 348 345
317 313 306 304 305 307 309 310 311 312 312 316 321 315 313 312 316 321 322 324 324 325 326 323 326 327 325 328 329 330 332 334 337 340 343 347 350 351 351 351 350 350 350 351 352 353 350 346 344
308 312 303 301 305 307 308 310 310 312 313 316 319 315 311 313 319 321 321 321 322 322 323 323 326 328 324 323 323 325 328 330 331 333 334 337 340 345 349 350 349 349 349 349 350 350 348 346 344
305 305 303 304 305 306 307 311 310 310 313 309 318 313 312 312 318 320 319 319 320 320 321 323 322 323 326 324 324 325 327 328 330 332 330 331 337 342 345 346 347 348 348 348 348 348 347 345 343
307 305 301 304 304 304 308 310 310 308 306 313 314 312 310 313 318 318 317 315 317 317 317 318 319 318 322 323 323 325 326 328 328 330 328 331 335 336 338 341 340 342 346 346 346 346 345 344 341
309 299 298 303 305 304 308 305 308 311 307 307 310 310 312 315 317 316 315 313 314 314 314 315 315 316 318 319 320 325 326 327 327 325 326 324 324 327 327 337 337 338 340 342 343 344 343 341 339
304 301 302 307 308 305 306 306 306 306 305 304 305 309 312 314 314 312 310 309 310 311 311 312 314 314 315 315 319 320 320 319 322 321 320 320 322 324 324 327 331 337 336 339 340 340 340 339 343
305 301 304 306 305 306 306 305 307 306 303 306 304 306 309 310 309 308 307 308 308 310 310 311 313 314 313 314 315 315 316 317 318 320 318 318 319 320 320 320 321 322 329 334 333 338 341 341 341
300 305 304 305 305 304 304 306 304 305 305 309 307 308 307 306 306 306 306 307 308 308 309 310 311 313 313 313 312 313 312 314 314 316 316 315 314 315 315 316 317 318 320 321 329 330 330 332 338
304 305 306 305 304 304 305 304 304 303 306 307 306 306 306 306 306 307 307 307 308 307 308 309 311 312 312 313 313 313 312 312 315 314 314 312 311 312 313 313 315 316 318 318 318 319 322 326 330
307 305 305 306 305 305 302 303 304 304 305 304 304 304 305 305 306 306 306 306 307 307 307 310 309 311 312 311 313 313 312 313 312 313 312 312 311 309 309 310 311 313 313 313 312 313 316 318 325
305 302 305 306 306 303 304 299 300 305 304 302 303 304 304 304 305 305 306 305 307 307 308 308 309 311 311 310 311 313 311 312 311 311 312 310 310 308 306 307 309 308 308 308 310 310 311 313 318
302 303 298 305 307 305 302 295 304 304 302 301 303 303 303 303 304 305 305 305 306 306 306 308 308 308 310 310 311 311 311 312 311 310 309 309 309 307 304 305 305 306 306 306 307 307 305 305 308
302 295 298 301 306 304 300 297 302 304 303 302 303 303 303 303 304 304 305 305 304 305 305 306 308 306 308 310 310 311 312 310 310 309 307 307 307 307 304 304 304 303 304 304 304 303 303 302 303
296 296 299 298 302 302 299 298 302 303 302 302 302 303 303 302 303 304 304 304 304 304 305 305 306 306 307 308 309 309 309 310 309 308 307 307 306 305 304 302 301 301 300 300 299 300 302 303 303
300 297 296 299 302 299 298 298 300 303 302 301 302 302 302 303 303 303 303 304 304 304 303 303 304 305 303 303 303 303 303 306 307 306 307 305 305 304 302 300 299 299 298 298 297 297 297 298 300
299 297 297 300 303 301 299 297 301 303 302 302 302 302 302 303 301 301 302 302 303 302 302 303 302 302 302 301 302 303 304 305 305 304 305 304 304 303 301 299 298 297 296 296 295 295 294 296 297
299 297 297 297 301 302 300 296 298 302 304 303 303 304 304 303 301 300 300 301 302 301 301 301 301 301 301 301 302 302 304 303 301 301 300 302 302 302 301 297 296 296 295 294 294 293 292 291 295
295 300 298 297 295 291 300 289 297 301 301 301 301 303 303 303 303 301 300 300 300 301 302 301 301 300 300 300 299 298 297 295 297 298 299 300 301 300 299 297 295 295 294 293 292 293 292 292 291
294 299 297 296 293 292 293 289 294 299 298 299 301 302 303 303 302 300 299 299 298 300 300 300 300 299 298 298 298 297 296 296 297 297 297 296 298 299 298 295 294 294 294 292 292 292 292 292 292
299 296 295 295 292 285 290 289 290 294 298 300 301 302 302 301 300 298 298 297 297 298 299 299 298 297 297 298 298 297 296 295 294 294 293 294 295 295 295 294 293 293 293 292 292 292 292 292 292
296 292 285 283 284 283 292 289 292 298 299 300 300 301 301 300 298 295 294 294 295 295 297 297 297 295 296 297 297 297 296 295 294 293 292 292 292 292 292 292 291 291 292 292 291 291 291 291 290
293 292 286 278 280 283 290 285 290 298 300 302 304 302 300 298 297 295 294 294 293 294 295 295 294 293 294 295 296 296 296 294 294 293 292 292 291 291 292 291 290 291 291 290 290 290 290 290 290
291 288 293 287 288 283 286 290 295 298 298 299 298 298 296 296 295 293 293 293 293 293 294 294 293 292 292 293 295 294 294 294 293 293 292 291 291 291 290 289 288 289 289 289 288 288 288 288 288
293 295 286 288 280 278 284 286 288 293 293 296 293 293 295 295 293 292 291 290 291 292 293 293 292 290 290 291 293 293 293 293 293 292 290 289 289 289 288 287 287 287 287 287 287 287 288 287 287
290 289 290 290 287 281 279 284 298 295 297 295 294 293 295 294 293 287 285 287 288 288 290 289 289 288 287 288 290 291 291 291 291 290 289 287 288 287 285 285 285 286 285 285 285 286 286 285 285
294 291 290 284 283 286 285 284 299 299 299 300 295 291 294 295 292 288 286 284 284 284 285 286 287 286 286 288 288 289 290 289 289 289 287 287 286 286 285 285 284 285 284 284 284 284 285 284 283